Tracking 29892 objects as of 21-Nov-2024
HD Live streaming from Space Station
objects crossing your sky now

DELTA 1 DEB

Track DELTA 1 DEB now!
10-day predictions


NORAD ID: 42583
Int'l Code: 1973-086HX
Perigee: 1,464.7 km
Apogee: 1,610.5 km
Inclination: 101.8 °
Period: 116.7 minutes
Semi major axis: 7908 km
RCS: Unknown
Launch date: November 6, 1973
Source: United States (US)
Launch site: AIR FORCE WESTERN TEST RANGE (AFWTR)

Note: This is SATELLITE DEBRIS
Your satellite tracking list
Your tracking list is empty




NASA's NSSDC Master Catalog

Two Line Element Set (TLE):
1 42583U 73086HX  24317.45076523  .00000584  00000-0  49726-2 0  9992
2 42583 101.8128 317.6005 0092150 124.0299 236.9555 12.34390999452567
Source of the keplerian elements: AFSPC